Weather History for Buffalo, WY

Change the Weather History Date:

Thursday, July 25, 2013

  Actual Average Record
Temperature  
Mean Temperature 69 °F 72 °F  
Max Temperature 79 °F 86 °F 97 °F (2011)
Min Temperature 58 °F 58 °F 48 °F (2004)
Degree Days  
Heating Degree Days 0 1  
Month to date heating degree days 0 28  
Since 1 June heating degree days 100 191  
Since 1 July heating degree days 0 28  
Cooling Degree Days 4 8  
Month to date cooling degree days 238 158  
Year to date cooling degree days 325 216  
Since 1 June cooling degree days 315 209  
Growing Degree Days 18 (Base 50)    
Moisture  
Dew Point 48 °F    
Average Humidity 50    
Maximum Humidity 69    
Minimum Humidity 31    
Precipitation  
Precipitation T in 0.05 in 1.24 in (2005)
Month to date precipitation T 1.33  
Year to date precipitation 4.08 9.13  
Sea Level Pressure  
Sea Level Pressure 30.05 in    
Wind  
Wind Speed 7 mph (NNW)    
Max Wind Speed 24 mph    
Max Gust Speed 37 mph    
Visibility 10 miles    
Events      
T = Trace of Precipitation, MM = Missing Value Source: NWS Daily Summary

Daily Weather History Graph

Daily Weather History Graph

Search for Another Location

Airport:

Trip Planner

Search our weather history database for the weather conditions in past years. The results will help you decide how hot, cold, wet, or windy it might be!

Date:

Astronomy

Jul. 25, 2013 Rise Set
Actual Time 5:46 AM MDT 8:39 PM MDT
Civil Twilight 5:12 AM MDT 9:13 PM MDT
Nautical Twilight 4:29 AM MDT 9:56 PM MDT
Astronomical Twilight 3:38 AM MDT 10:47 PM MDT
Moon 10:09 PM MDT (7/25) 9:30 AM MDT (7/25)
Length of Visible Light 16h 00m
Length of Day
14h 52m
Waning Gibbous, 88% of the Moon is Illuminated
Jul 25
Waning Gibbous
Jul 29
Last Quarter
Aug 6
New
Aug 14
First Quarter
Aug 20
Full

Hourly Weather History & Observations

Time (MDT) Temp. Dew Point Humidity Pressure Visibility Wind Dir Wind Speed Gust Speed Precip Events Conditions
12:53 AM 71.1 °F 45.0 °F 39% 29.81 in 10.0 mi SW 4.6 mph - N/A   Clear
1:53 AM 66.9 °F 53.1 °F 61% 29.85 in 10.0 mi North 6.9 mph - N/A   Clear
2:53 AM 64.9 °F 52.0 °F 63% 29.92 in 10.0 mi NNW 19.6 mph 26.5 mph N/A   Clear
3:53 AM 62.1 °F 48.9 °F 62% 29.99 in 10.0 mi NNW 20.7 mph 26.5 mph N/A   Mostly Cloudy
4:53 AM 60.1 °F 48.9 °F 67% 30.01 in 10.0 mi NNW 11.5 mph - N/A   Mostly Cloudy
5:53 AM 59.0 °F 48.9 °F 69% 30.02 in 10.0 mi North 16.1 mph 25.3 mph N/A   Clear
6:53 AM 60.1 °F 50.0 °F 69% 30.04 in 10.0 mi NE 5.8 mph - N/A   Mostly Cloudy
7:53 AM 62.1 °F 51.1 °F 67% 30.07 in 10.0 mi NNW 11.5 mph - N/A   Clear
8:53 AM 64.9 °F 52.0 °F 63% 30.09 in 10.0 mi North 8.1 mph - N/A   Clear
9:53 AM 72.0 °F 51.1 °F 48% 30.08 in 10.0 mi NW 9.2 mph - N/A   Clear
10:53 AM 73.9 °F 48.0 °F 40% 30.10 in 10.0 mi NNE 9.2 mph - N/A   Clear
11:53 AM 77.0 °F 46.0 °F 33% 30.08 in 10.0 mi NE 9.2 mph - N/A   Clear
12:53 PM 75.9 °F 48.0 °F 37% 30.07 in 10.0 mi Calm Calm - N/A   Partly Cloudy
1:53 PM 78.1 °F 46.9 °F 33% 30.09 in 10.0 mi South 8.1 mph - N/A   Clear
2:53 PM 75.0 °F 46.0 °F 36% 30.10 in 10.0 mi SW 4.6 mph - N/A   Mostly Cloudy
3:53 PM 75.9 °F 46.0 °F 35% 30.10 in 10.0 mi North 9.2 mph - 0.00 in   Scattered Clouds
4:53 PM 75.0 °F 46.0 °F 36% 30.10 in 10.0 mi North 4.6 mph - N/A   Partly Cloudy
5:53 PM 77.0 °F 45.0 °F 32% 30.08 in 10.0 mi SSW 4.6 mph - N/A   Partly Cloudy
6:53 PM 77.0 °F 46.0 °F 33% 30.06 in 10.0 mi Variable 3.5 mph - N/A   Partly Cloudy
7:53 PM 75.0 °F 46.0 °F 36% 30.08 in 10.0 mi Calm Calm - N/A   Clear
8:53 PM 70.0 °F 46.0 °F 42% 30.09 in 10.0 mi WSW 6.9 mph - N/A   Scattered Clouds
9:53 PM 68.0 °F 50.0 °F 52% 30.10 in 10.0 mi Calm Calm - N/A   Scattered Clouds
10:53 PM 68.0 °F 48.0 °F 49% 30.12 in 10.0 mi East 3.5 mph - N/A   Clear
11:53 PM 64.9 °F 48.0 °F 54% 30.14 in 10.0 mi Calm Calm - N/A   Clear